Weather History for KSJT - November, 2012

Change the Weather History Date:

Wednesday, November 7, 2012

  Actual Average Record
Temperature  
Mean Temperature 63 °F 59 °F  
Max Temperature 83 °F 72 °F 91 °F (1988)
Min Temperature 42 °F 46 °F 25 °F (1959)
Degree Days  
Heating Degree Days 2 7  
Month to date heating degree days 11 45  
Since 1 July heating degree days 128 136  
Cooling Degree Days 0 1  
Month to date cooling degree days 10 8  
Year to date cooling degree days 3195 2492  
Growing Degree Days 12 (Base 50)    
Moisture  
Dew Point 45 °F    
Average Humidity 57    
Maximum Humidity 89    
Minimum Humidity 24    
Precipitation  
Precipitation 0.00 in 0.04 in 0.69 in (1967)
Month to date precipitation 0.00 0.37  
Year to date precipitation 21.78 19.63  
Snow  
Snow 0.00 in 0.00 in 0.00 in (2002)
Month to date snowfall 0.0 0.0  
Since 1 July snowfall T 0.0  
Snow Depth 0.00 in    
Sea Level Pressure  
Sea Level Pressure 30.09 in    
Wind  
Wind Speed 5 mph (South)    
Max Wind Speed 16 mph    
Max Gust Speed 21 mph    
Visibility 10 miles    
Events      
T = Trace of Precipitation, MM = Missing Value Source: NWS Daily Summary

Daily Weather History Graph

Daily Weather History Graph

Search for Another Location

Airport or City:

Trip Planner

Search our weather history database for the weather conditions in past years. The results will help you decide how hot, cold, wet, or windy it might be!

Date:

Astronomy

Nov. 07, 2012 Rise Set
Actual Time 7:03 AM CST 5:47 PM CST
Civil Twilight 6:37 AM CST 6:13 PM CST
Nautical Twilight 6:08 AM CST 6:42 PM CST
Astronomical Twilight 5:40 AM CST 7:10 PM CST
Moon 12:24 AM CST 1:34 PM CST
Length of Visible Light 11h 35m
Length of Day
10h 44m
Last Quarter, 43% of the Moon is Illuminated
Nov 7
Last Quarter
Nov 13
New
Nov 20
First Quarter
Nov 28
Full
Dec 6
Last Quarter

Hourly Weather History & Observations

Time (CST) Temp. Windchill Dew Point Humidity Pressure Visibility Wind Dir Wind Speed Gust Speed Precip Events Conditions
12:51 AM 50.0 °F - 43.0 °F 77% 30.14 in 10.0 mi SSW 4.6 mph - N/A   Clear
1:51 AM 48.0 °F - 42.1 °F 80% 30.14 in 10.0 mi SSW 5.8 mph - N/A   Clear
2:51 AM 46.9 °F - 41.0 °F 80% 30.14 in 10.0 mi SW 3.5 mph - N/A   Clear
3:51 AM 46.9 °F - 42.1 °F 83% 30.13 in 10.0 mi SW 3.5 mph - N/A   Clear
4:51 AM 45.0 °F 43.5 °F 41.0 °F 86% 30.13 in 10.0 mi South 3.5 mph - N/A   Clear
5:51 AM 44.1 °F - 39.9 °F 85% 30.15 in 10.0 mi Calm Calm - N/A   Clear
6:51 AM 43.0 °F - 39.9 °F 89% 30.18 in 10.0 mi Calm Calm - N/A   Clear
7:51 AM 45.0 °F - 41.0 °F 86% 30.19 in 10.0 mi Calm Calm - N/A   Clear
8:51 AM 55.9 °F - 44.1 °F 64% 30.19 in 10.0 mi Calm Calm - N/A   Clear
9:51 AM 64.9 °F - 46.9 °F 52% 30.18 in 10.0 mi Calm Calm - N/A   Clear
10:51 AM 71.1 °F - 48.0 °F 44% 30.17 in 10.0 mi Calm Calm - N/A   Clear
12:51 PM 79.0 °F - 46.0 °F 31% 30.07 in 10.0 mi SSE 10.4 mph - N/A   Clear
1:51 PM 82.0 °F - 43.0 °F 25% 30.03 in 10.0 mi South 13.8 mph 19.6 mph N/A   Clear
2:51 PM 82.9 °F - 44.1 °F 25% 30.01 in 10.0 mi South 12.7 mph - N/A   Clear
3:51 PM 82.9 °F - 43.0 °F 24% 30.00 in 10.0 mi South 11.5 mph - N/A   Clear
5:51 PM 75.0 °F - 46.9 °F 37% 30.01 in 10.0 mi South 4.6 mph - N/A   Clear
6:51 PM 68.0 °F - 48.0 °F 49% 30.03 in 10.0 mi SSE 3.5 mph - N/A   Clear
7:51 PM 64.0 °F - 48.0 °F 56% 30.05 in 10.0 mi SSE 4.6 mph - N/A   Clear
8:51 PM 59.0 °F - 46.9 °F 64% 30.05 in 10.0 mi South 4.6 mph - N/A   Clear
9:51 PM 62.1 °F - 48.0 °F 60% 30.04 in 10.0 mi SSW 5.8 mph - N/A   Clear
10:51 PM 62.1 °F - 48.9 °F 62% 30.01 in 10.0 mi South 6.9 mph - N/A   Clear
11:51 PM 64.0 °F - 50.0 °F 60% 30.00 in 10.0 mi South 9.2 mph - N/A   Clear